Total_Precipitation_Accumulation
0.23 0.24 0.26 0.24 0.25 0.26 0.28 0.38 0.53 0.37 0.10 0.03 0.05 0.06 0.09 0.13 0.17 0.17 0.17 0.20 0.27 0.34 0.37 0.40 0.45 0.55 0.86 1.52 2.48 3.14 3.01 2.36 1.64 1.27 1.29 1.54 1.97 2.39
0.28 0.30 0.31 0.31 0.31 0.30 0.32 0.32 0.40 0.48 0.29 0.05 0.06 0.07 0.09 0.12 0.17 0.18 0.19 0.21 0.22 0.27 0.33 0.35 0.39 0.47 0.62 0.92 1.50 2.41 2.99 2.92 2.32 1.73 1.51 1.61 1.83 2.28
0.30 0.34 0.35 0.35 0.35 0.33 0.34 0.35 0.34 0.40 0.39 0.10 0.04 0.07 0.13 0.16 0.18 0.18 0.19 0.18 0.16 0.20 0.26 0.32 0.37 0.44 0.55 0.72 0.98 1.56 2.41 2.92 2.90 2.40 1.99 1.81 1.77 1.92
0.44 0.43 0.44 0.45 0.47 0.45 0.45 0.41 0.36 0.35 0.40 0.26 0.07 0.06 0.13 0.20 0.26 0.26 0.22 0.19 0.16 0.16 0.21 0.28 0.34 0.39 0.49 0.61 0.77 1.05 1.63 2.36 2.83 2.79 2.38 2.01 1.82 1.86
0.72 0.71 0.68 0.65 0.66 0.64 0.62 0.55 0.44 0.36 0.35 0.34 0.18 0.10 0.14 0.23 0.33 0.35 0.30 0.23 0.17 0.18 0.21 0.25 0.30 0.34 0.40 0.50 0.63 0.79 1.06 1.48 2.09 2.62 2.78 2.47 2.08 1.92
0.82 0.86 0.91 0.94 0.94 0.89 0.87 0.72 0.57 0.48 0.42 0.41 0.31 0.20 0.17 0.24 0.42 0.47 0.42 0.33 0.24 0.20 0.23 0.24 0.29 0.34 0.36 0.38 0.43 0.57 0.82 1.20 1.61 2.16 2.67 2.79 2.45 2.15
0.58 0.62 0.73 0.89 1.02 1.10 1.13 0.99 0.85 0.78 0.67 0.59 0.48 0.36 0.29 0.34 0.48 0.54 0.59 0.53 0.44 0.34 0.27 0.23 0.24 0.25 0.27 0.31 0.39 0.49 0.66 0.88 1.16 1.58 2.14 2.63 2.68 2.45
0.38 0.38 0.43 0.59 0.71 0.83 0.98 1.03 1.09 1.15 1.07 0.89 0.71 0.56 0.42 0.39 0.48 0.64 0.70 0.75 0.70 0.51 0.43 0.36 0.31 0.29 0.26 0.25 0.30 0.38 0.53 0.72 0.95 1.21 1.56 2.04 2.46 2.57
0.21 0.22 0.23 0.32 0.45 0.50 0.59 0.70 0.85 1.00 1.13 1.12 1.04 0.79 0.56 0.47 0.56 0.69 0.74 0.78 0.72 0.65 0.66 0.65 0.54 0.43 0.35 0.34 0.38 0.39 0.45 0.58 0.75 0.95 1.18 1.50 1.93 2.33
0.16 0.14 0.13 0.18 0.33 0.44 0.54 0.54 0.55 0.71 0.96 1.13 1.23 1.05 0.79 0.66 0.76 0.88 0.95 0.95 0.86 0.87 0.90 0.91 0.74 0.59 0.54 0.50 0.47 0.42 0.41 0.47 0.59 0.73 0.91 1.12 1.42 1.84
0.13 0.14 0.12 0.12 0.28 0.43 0.45 0.40 0.37 0.47 0.61 0.85 1.02 1.04 0.96 0.92 0.99 1.18 1.26 1.28 1.21 1.09 1.08 1.11 0.98 0.77 0.72 0.72 0.65 0.53 0.44 0.43 0.49 0.59 0.72 0.87 1.07 1.45
0.11 0.11 0.18 0.23 0.32 0.37 0.36 0.36 0.39 0.38 0.37 0.43 0.50 0.60 0.66 0.70 0.87 1.11 1.22 1.27 1.29 1.36 1.24 1.15 1.19 1.09 1.09 0.95 0.77 0.55 0.45 0.46 0.49 0.54 0.60 0.69 0.85 1.06
0.14 0.15 0.16 0.25 0.29 0.29 0.31 0.34 0.43 0.38 0.30 0.34 0.39 0.43 0.50 0.58 0.65 0.86 1.09 1.21 1.28 1.32 1.23 1.19 1.35 1.23 1.15 1.09 0.92 0.70 0.49 0.42 0.44 0.55 0.62 0.68 0.75 0.81
0.18 0.12 0.12 0.18 0.21 0.25 0.27 0.32 0.33 0.33 0.33 0.34 0.33 0.33 0.40 0.51 0.60 0.71 0.88 1.02 1.10 1.16 1.12 1.16 1.37 1.28 1.10 0.96 0.91 0.88 0.68 0.52 0.44 0.46 0.51 0.73 0.83 0.86
0.28 0.23 0.17 0.17 0.18 0.15 0.17 0.23 0.25 0.26 0.33 0.34 0.30 0.27 0.33 0.45 0.52 0.61 0.69 0.79 0.89 0.99 1.08 1.12 1.26 1.34 1.23 1.00 0.80 0.81 0.83 0.76 0.58 0.50 0.51 0.55 0.62 0.71
0.29 0.23 0.18 0.16 0.13 0.10 0.09 0.11 0.14 0.20 0.28 0.30 0.26 0.24 0.25 0.34 0.44 0.55 0.67 0.73 0.83 0.91 1.03 1.14 1.27 1.47 1.43 1.08 0.89 0.81 0.74 0.82 0.73 0.55 0.52 0.55 0.56 0.52
0.31 0.27 0.20 0.16 0.15 0.12 0.09 0.07 0.09 0.13 0.19 0.23 0.24 0.26 0.28 0.32 0.39 0.49 0.67 0.77 0.86 0.86 1.01 1.24 1.35 1.50 1.55 1.42 1.22 0.94 0.74 0.67 0.67 0.58 0.54 0.62 0.69 0.62
0.35 0.32 0.20 0.14 0.13 0.12 0.12 0.10 0.09 0.11 0.13 0.19 0.23 0.26 0.30 0.35 0.40 0.46 0.61 0.77 0.83 0.82 0.92 1.16 1.38 1.60 1.75 1.74 1.50 1.10 0.86 0.72 0.72 0.67 0.56 0.59 0.75 0.79
0.26 0.21 0.14 0.13 0.13 0.12 0.12 0.12 0.11 0.09 0.11 0.17 0.22 0.24 0.28 0.33 0.39 0.46 0.55 0.67 0.76 0.81 0.89 1.04 1.31 1.54 1.64 1.69 1.78 1.44 1.08 0.88 0.86 0.87 0.74 0.58 0.59 0.71
0.16 0.18 0.16 0.13 0.13 0.14 0.14 0.14 0.12 0.11 0.12 0.15 0.17 0.20 0.26 0.32 0.37 0.41 0.49 0.62 0.71 0.79 0.87 0.98 1.21 1.42 1.46 1.37 1.46 1.59 1.53 1.17 0.95 0.95 0.89 0.76 0.70 0.84
0.13 0.14 0.14 0.14 0.14 0.15 0.14 0.14 0.14 0.13 0.12 0.14 0.15 0.16 0.21 0.28 0.32 0.34 0.42 0.52 0.64 0.74 0.79 0.86 1.04 1.27 1.43 1.38 1.30 1.37 1.59 1.62 1.21 0.94 0.86 0.86 0.88 0.93
0.14 0.15 0.14 0.14 0.15 0.16 0.16 0.15 0.14 0.12 0.11 0.12 0.12 0.13 0.15 0.21 0.26 0.29 0.36 0.45 0.54 0.62 0.70 0.77 0.92 1.23 1.51 1.52 1.37 1.31 1.49 1.71 1.73 1.39 1.03 0.81 0.72 0.71
0.19 0.19 0.16 0.15 0.15 0.16 0.16 0.15 0.14 0.11 0.09 0.10 0.11 0.11 0.12 0.16 0.19 0.24 0.30 0.38 0.46 0.54 0.65 0.78 0.91 1.14 1.43 1.54 1.47 1.36 1.37 1.49 1.59 1.53 1.45 1.15 0.72 0.47